Language: 


Des rapports , des résumés tant et plus, au choix de chacun....


Données Historiques de Météogheer
Journalier Rapport pour Janvier 5, 2018 Unitée:  Métrique    Impériale   Les deux
Suivant Jour »
Journalier Hebdomadaire Mensuel Annuel Sur mesure
  Max: Min: Moyenne:
Température: 10.0 °C 5.8 °C 8.2 °C
Point de rosée: 9.0 °C 6.0 °C 7.4 °C
Humidité: 98% 82% 92%
Vent: 36.0km/h 0.0km/h 13.1km/h
Rafales: 39.6km/h - -
Vent- - SW
Pression: 1000.9 hPa 994.1 hPa -
Pluie: 3.6 mm    
Historical Graphs
 
 
Données tabulaires pour Janvier 5, 2018
Heure Température Point de rosée Pression Vent Vent Rafales Humidité Pluie Taux (Horaire) Conditions
00:01 8.5 °C 6.0 °C 996.8 hPa SW 9.0 km/h 17.7 km/h 83% 0.0 mm
00:06 8.5 °C 6.0 °C 996.8 hPa WSW 17.7 km/h 17.7 km/h 83% 0.0 mm
00:08 8.5 °C 6.0 °C 996.8 hPa WSW 9.0 km/h 17.7 km/h 84% 0.0 mm
00:14 8.6 °C 7.0 °C 996.8 hPa SW 11.9 km/h 17.7 km/h 85% 0.0 mm
00:19 8.6 °C 7.0 °C 996.8 hPa WSW 13.0 km/h 16.9 km/h 85% 0.0 mm
00:27 8.7 °C 7.0 °C 996.2 hPa WSW 14.0 km/h 17.7 km/h 87% 0.0 mm
00:30 8.7 °C 7.0 °C 996.2 hPa WSW 10.5 km/h 17.7 km/h 87% 0.0 mm
00:35 8.7 °C 7.0 °C 996.2 hPa WSW 11.9 km/h 20.6 km/h 88% 0.0 mm
00:37 8.8 °C 8.0 °C 996.2 hPa WSW 10.5 km/h 20.6 km/h 89% 0.0 mm
00:42 8.8 °C 8.0 °C 996.2 hPa SSW 9.0 km/h 16.6 km/h 89% 0.0 mm
00:45 8.8 °C 8.0 °C 996.2 hPa SW 12.2 km/h 16.6 km/h 89% 0.0 mm
00:51 8.8 °C 8.0 °C 996.2 hPa WSW 11.9 km/h 17.7 km/h 89% 0.0 mm
00:53 8.8 °C 8.0 °C 996.2 hPa SSW 15.4 km/h 17.7 km/h 89% 0.0 mm
00:58 8.8 °C 8.0 °C 996.2 hPa WSW 10.8 km/h 17.7 km/h 89% 0.0 mm
01:03 8.8 °C 8.0 °C 996.2 hPa WSW 10.1 km/h 20.1 km/h 89% 0.0 mm
01:08 8.7 °C 7.0 °C 996.2 hPa WSW 16.6 km/h 20.1 km/h 90% 0.0 mm
01:11 8.6 °C 7.0 °C 996.2 hPa SW 9.7 km/h 20.1 km/h 90% 0.0 mm
01:16 8.5 °C 8.0 °C 996.2 hPa SSW 13.7 km/h 19.8 km/h 91% 0.3 mm
01:21 8.4 °C 7.0 °C 996.2 hPa SSW 10.1 km/h 19.8 km/h 92% 0.3 mm
01:24 8.3 °C 7.0 °C 996.2 hPa SSW 19.5 km/h 19.8 km/h 92% 0.5 mm
01:29 8.2 °C 7.0 °C 995.1 hPa SSW 15.1 km/h 19.8 km/h 93% 0.8 mm
01:34 8.1 °C 7.0 °C 995.1 hPa SW 6.9 km/h 19.8 km/h 94% 1.3 mm
01:35 8.1 °C 7.0 °C 995.1 hPa WSW 11.6 km/h 19.8 km/h 94% 1.3 mm
01:39 8.0 °C 7.0 °C 995.1 hPa SW 13.7 km/h 16.6 km/h 94% 1.5 mm
01:44 7.9 °C 7.0 °C 995.1 hPa SSW 9.7 km/h 13.7 km/h 95% 1.8 mm
01:47 7.9 °C 8.0 °C 995.1 hPa SSW 6.1 km/h 13.7 km/h 96% 1.8 mm
01:52 7.8 °C 7.0 °C 995.1 hPa SW 8.7 km/h 12.6 km/h 96% 2.3 mm
01:53 7.8 °C 7.0 °C 995.1 hPa SSW 13.7 km/h 13.7 km/h 96% 2.3 mm
01:58 7.8 °C 7.0 °C 995.1 hPa WSW 9.0 km/h 15.1 km/h 97% 2.3 mm
02:04 7.8 °C 7.0 °C 995.1 hPa SSW 13.7 km/h 16.3 km/h 97% 2.3 mm
02:09 7.8 °C 8.0 °C 995.1 hPa WSW 16.6 km/h 18.0 km/h 98% 2.3 mm
02:11 7.9 °C 8.0 °C 994.1 hPa SW 19.1 km/h 19.5 km/h 98% 2.3 mm
02:16 7.9 °C 8.0 °C 994.1 hPa SW 13.7 km/h 23.3 km/h 98% 1.8 mm
02:22 8.0 °C 8.0 °C 994.1 hPa SW 16.6 km/h 23.3 km/h 98% 1.5 mm
02:26 8.1 °C 8.0 °C 995.1 hPa WSW 14.0 km/h 20.6 km/h 98% 1.5 mm
02:30 8.1 °C 8.0 °C 995.1 hPa WSW 19.8 km/h 20.6 km/h 98% 1.3 mm
02:35 8.3 °C 9.0 °C 995.1 hPa SW 21.2 km/h 21.2 km/h 98% 0.8 mm
02:38 8.4 °C 9.0 °C 995.1 hPa SW 20.6 km/h 27.4 km/h 98% 0.8 mm
02:43 8.5 °C 9.0 °C 995.1 hPa WSW 17.2 km/h 27.7 km/h 98% 0.3 mm
02:44 8.5 °C 9.0 °C 995.1 hPa SW 20.6 km/h 27.7 km/h 98% 0.3 mm
02:47 8.6 °C 9.0 °C 995.1 hPa WSW 25.9 km/h 29.1 km/h 98% 0.3 mm
02:51 8.7 °C 9.0 °C 995.1 hPa WSW 21.2 km/h 36.7 km/h 98% 0.3 mm
02:52 8.8 °C 9.0 °C 995.1 hPa WSW 31.7 km/h 36.7 km/h 98% 0.3 mm
02:58 8.9 °C 9.0 °C 994.1 hPa West 31.7 km/h 39.6 km/h 98% 0.3 mm
03:01 9.0 °C 9.0 °C 994.1 hPa WSW 24.5 km/h 39.6 km/h 98% 0.3 mm
03:06 9.1 °C 9.0 °C 994.1 hPa West 36.0 km/h 39.6 km/h 98% 0.3 mm
03:11 9.2 °C 9.0 °C 994.1 hPa WSW 20.6 km/h 36.7 km/h 98% 0.3 mm
03:16 9.2 °C 9.0 °C 994.1 hPa WSW 25.9 km/h 36.0 km/h 97% 0.3 mm
03:26 9.4 °C 9.0 °C 995.1 hPa West 17.7 km/h 36.0 km/h 96% 0.3 mm
03:30 9.4 °C 9.0 °C 995.1 hPa West 21.2 km/h 32.3 km/h 96% 0.3 mm
03:35 9.4 °C 9.0 °C 995.1 hPa WSW 17.2 km/h 28.0 km/h 96% 0.3 mm
03:39 9.4 °C 9.0 °C 995.1 hPa West 20.1 km/h 28.0 km/h 96% 0.3 mm
03:44 9.5 °C 9.0 °C 995.1 hPa WSW 19.1 km/h 25.6 km/h 96% 0.3 mm
03:46 9.5 °C 9.0 °C 995.1 hPa WSW 15.8 km/h 25.6 km/h 96% 0.3 mm
03:51 9.5 °C 9.0 °C 995.1 hPa WSW 24.8 km/h 27.4 km/h 96% 0.0 mm
03:53 9.5 °C 9.0 °C 995.1 hPa WSW 25.6 km/h 27.4 km/h 96% 0.0 mm
03:58 9.5 °C 9.0 °C 995.1 hPa WSW 19.5 km/h 30.9 km/h 95% 0.0 mm
04:02 9.5 °C 9.0 °C 995.1 hPa WSW 21.2 km/h 30.9 km/h 95% 0.0 mm
04:07 9.5 °C 9.0 °C 995.1 hPa West 26.7 km/h 32.0 km/h 94% 0.0 mm
04:11 9.5 °C 9.0 °C 995.1 hPa WSW 17.7 km/h 32.0 km/h 93% 0.0 mm
04:14 9.5 °C 9.0 °C 995.1 hPa WSW 17.7 km/h 32.0 km/h 93% 0.0 mm
04:17 9.5 °C 9.0 °C 995.1 hPa WSW 21.2 km/h 33.5 km/h 91% 0.0 mm
04:22 9.5 °C 8.0 °C 995.1 hPa WSW 22.7 km/h 34.6 km/h 89% 0.0 mm
04:24 9.6 °C 8.0 °C 995.1 hPa West 18.3 km/h 35.6 km/h 87% 0.0 mm
04:29 9.6 °C 8.0 °C 995.1 hPa West 27.7 km/h 35.6 km/h 85% 0.0 mm
04:30 9.6 °C 8.0 °C 995.1 hPa West 16.9 km/h 35.6 km/h 85% 0.0 mm
04:35 9.5 °C 7.0 °C 995.1 hPa West 16.6 km/h 35.2 km/h 84% 0.0 mm
04:36 9.5 °C 7.0 °C 995.1 hPa West 26.2 km/h 29.1 km/h 84% 0.0 mm
04:41 9.4 °C 7.0 °C 995.1 hPa WSW 20.6 km/h 29.1 km/h 82% 0.0 mm
04:46 9.4 °C 7.0 °C 995.1 hPa West 25.3 km/h 32.0 km/h 82% 0.0 mm
04:47 9.4 °C 7.0 °C 995.1 hPa West 12.2 km/h 32.0 km/h 82% 0.0 mm
04:52 9.3 °C 7.0 °C 995.1 hPa West 24.5 km/h 32.0 km/h 82% 0.0 mm
04:53 9.3 °C 7.0 °C 995.1 hPa West 13.7 km/h 31.4 km/h 82% 0.0 mm
04:59 9.3 °C 7.0 °C 995.1 hPa WSW 13.0 km/h 28.5 km/h 82% 0.0 mm
05:04 9.2 °C 7.0 °C 995.1 hPa West 20.6 km/h 26.2 km/h 83% 0.0 mm
05:09 9.2 °C 7.0 °C 995.1 hPa West 20.1 km/h 26.2 km/h 83% 0.0 mm
05:10 9.2 °C 7.0 °C 995.1 hPa WSW 11.1 km/h 26.2 km/h 83% 0.0 mm
05:15 9.2 °C 7.0 °C 995.1 hPa West 19.8 km/h 23.8 km/h 84% 0.0 mm
05:20 9.3 °C 7.0 °C 995.1 hPa SW 20.1 km/h 23.8 km/h 84% 0.0 mm
05:23 9.3 °C 7.0 °C 995.1 hPa WNW 12.2 km/h 23.8 km/h 84% 0.0 mm
05:28 9.2 °C 7.0 °C 994.1 hPa West 10.5 km/h 20.6 km/h 85% 0.0 mm
05:33 9.2 °C 7.0 °C 994.1 hPa WSW 14.0 km/h 19.5 km/h 85% 0.0 mm
05:36 9.1 °C 7.0 °C 994.1 hPa WSW 14.0 km/h 16.3 km/h 85% 0.0 mm
05:41 9.1 °C 7.0 °C 994.1 hPa West 17.2 km/h 17.2 km/h 86% 0.0 mm
05:46 9.1 °C 7.0 °C 994.1 hPa West 13.7 km/h 19.8 km/h 86% 0.0 mm
05:47 9.1 °C 7.0 °C 994.1 hPa West 12.2 km/h 19.8 km/h 86% 0.0 mm
05:53 9.1 °C 7.0 °C 994.1 hPa West 9.3 km/h 19.8 km/h 86% 0.0 mm
05:55 9.0 °C 7.0 °C 994.1 hPa WSW 12.6 km/h 16.3 km/h 87% 0.0 mm
06:00 9.0 °C 7.0 °C 995.1 hPa WSW 13.0 km/h 19.8 km/h 87% 0.0 mm
06:02 8.9 °C 7.0 °C 995.1 hPa WSW 10.1 km/h 19.8 km/h 88% 0.0 mm
06:03 8.9 °C 7.0 °C 995.1 hPa WSW 10.5 km/h 19.8 km/h 88% 0.0 mm
06:08 8.9 °C 8.0 °C 995.1 hPa WSW 9.3 km/h 19.8 km/h 89% 0.0 mm
06:14 8.8 °C 8.0 °C 995.1 hPa WSW 10.5 km/h 15.4 km/h 89% 0.0 mm
06:16 8.8 °C 8.0 °C 995.1 hPa WSW 11.9 km/h 15.4 km/h 90% 0.0 mm
06:21 8.8 °C 8.0 °C 995.1 hPa West 10.5 km/h 15.1 km/h 90% 0.0 mm
06:27 8.8 °C 8.0 °C 995.1 hPa WSW 12.2 km/h 13.7 km/h 91% 0.0 mm
06:31 8.8 °C 8.0 °C 995.1 hPa WSW 10.5 km/h 13.7 km/h 91% 0.0 mm
06:36 8.8 °C 8.0 °C 995.1 hPa WSW 10.1 km/h 13.7 km/h 92% 0.0 mm
06:39 8.8 °C 8.0 °C 995.1 hPa WSW 8.7 km/h 13.7 km/h 92% 0.0 mm
06:44 8.7 °C 8.0 °C 995.1 hPa WSW 8.7 km/h 16.6 km/h 92% 0.0 mm
06:49 8.7 °C 8.0 °C 995.1 hPa WSW 16.6 km/h 20.9 km/h 93% 0.0 mm
06:54 8.7 °C 8.0 °C 995.1 hPa WSW 12.6 km/h 24.5 km/h 94% 0.0 mm
06:59 8.6 °C 8.0 °C 994.1 hPa WSW 13.0 km/h 24.5 km/h 94% 0.0 mm
07:03 8.6 °C 8.0 °C 994.1 hPa WSW 12.2 km/h 17.7 km/h 94% 0.0 mm
07:08 8.5 °C 8.0 °C 994.1 hPa WSW 11.9 km/h 17.7 km/h 94% 0.0 mm
07:10 8.5 °C 8.0 °C 994.1 hPa WSW 10.1 km/h 17.7 km/h 94% 0.0 mm
07:15 8.4 °C 8.0 °C 995.1 hPa WSW 7.9 km/h 15.1 km/h 94% 0.0 mm
07:18 8.3 °C 8.0 °C 995.1 hPa WSW 9.3 km/h 14.0 km/h 94% 0.0 mm
07:19 8.3 °C 8.0 °C 995.1 hPa SSW 9.7 km/h 12.6 km/h 94% 0.0 mm
07:24 8.3 °C 8.0 °C 995.1 hPa SW 7.6 km/h 10.1 km/h 94% 0.0 mm
07:27 8.3 °C 8.0 °C 995.1 hPa SW 9.0 km/h 10.1 km/h 94% 0.0 mm
07:32 8.3 °C 8.0 °C 995.1 hPa Calm   9.3 km/h 94% 0.0 mm
07:35 8.3 °C 8.0 °C 995.1 hPa SW 5.5 km/h 9.0 km/h 94% 0.0 mm
07:40 8.2 °C 7.0 °C 995.1 hPa SW 9.3 km/h 9.3 km/h 94% 0.0 mm
07:46 8.3 °C 8.0 °C 995.1 hPa SW 9.3 km/h 10.5 km/h 95% 0.0 mm
07:51 8.3 °C 8.0 °C 995.1 hPa WSW 7.9 km/h 10.5 km/h 95% 0.0 mm
07:56 8.1 °C 8.0 °C 995.1 hPa SW 6.4 km/h 10.1 km/h 95% 0.0 mm
08:02 8.1 °C 8.0 °C 995.1 hPa SSW 7.9 km/h 10.1 km/h 95% 0.0 mm
08:04 8.1 °C 8.0 °C 995.1 hPa Calm   10.1 km/h 95% 0.0 mm
08:09 8.1 °C 8.0 °C 995.1 hPa SSW 9.3 km/h 10.1 km/h 95% 0.0 mm
08:14 8.1 °C 8.0 °C 995.1 hPa SW 9.3 km/h 12.6 km/h 95% 0.0 mm
08:16 8.1 °C 8.0 °C 995.1 hPa SW 6.1 km/h 12.6 km/h 95% 0.0 mm
08:23 8.1 °C 8.0 °C 995.1 hPa WSW 10.1 km/h 12.6 km/h 95% 0.0 mm
08:24 8.1 °C 8.0 °C 995.1 hPa SW 8.7 km/h 10.8 km/h 95% 0.0 mm
08:30 8.1 °C 8.0 °C 995.1 hPa SW 7.2 km/h 13.0 km/h 95% 0.0 mm
08:35 8.2 °C 8.0 °C 995.1 hPa SW 8.7 km/h 13.7 km/h 95% 0.0 mm
08:36 8.2 °C 8.0 °C 995.1 hPa SSW 6.9 km/h 13.7 km/h 95% 0.0 mm
08:37 8.2 °C 8.0 °C 995.1 hPa SW 7.9 km/h 13.7 km/h 95% 0.0 mm
08:42 8.2 °C 8.0 °C 996.2 hPa SW 9.7 km/h 16.3 km/h 96% 0.0 mm
08:47 8.2 °C 8.0 °C 996.2 hPa WSW 9.7 km/h 16.9 km/h 96% 0.0 mm
08:49 8.2 °C 8.0 °C 996.2 hPa SW 11.9 km/h 16.9 km/h 96% 0.0 mm
08:54 8.3 °C 8.0 °C 996.2 hPa SSW 9.7 km/h 16.9 km/h 96% 0.0 mm
08:59 8.3 °C 8.0 °C 996.2 hPa SSW 5.8 km/h 13.0 km/h 96% 0.0 mm
09:05 8.3 °C 8.0 °C 996.2 hPa South 10.1 km/h 11.9 km/h 96% 0.0 mm
09:10 8.3 °C 8.0 °C 996.2 hPa SW 11.9 km/h 11.9 km/h 97% 0.0 mm
09:15 8.4 °C 8.0 °C 996.2 hPa SSW 9.3 km/h 12.2 km/h 97% 0.0 mm
09:17 8.4 °C 8.0 °C 996.2 hPa WSW 9.7 km/h 12.6 km/h 97% 0.0 mm
09:22 8.4 °C 8.0 °C 996.2 hPa SW 9.0 km/h 16.3 km/h 97% 0.0 mm
09:28 8.4 °C 8.0 °C 996.2 hPa SSW 7.9 km/h 16.3 km/h 97% 0.0 mm
09:34 8.5 °C 9.0 °C 996.2 hPa SW 14.0 km/h 14.0 km/h 97% 0.0 mm
09:39 8.5 °C 9.0 °C 996.2 hPa WSW 13.7 km/h 14.0 km/h 96% 0.0 mm
09:42 8.5 °C 9.0 °C 996.2 hPa SW 7.9 km/h 15.1 km/h 96% 0.0 mm
09:47 8.5 °C 9.0 °C 996.2 hPa SSW 7.9 km/h 15.1 km/h 96% 0.0 mm
09:52 8.5 °C 9.0 °C 996.2 hPa SSW 8.7 km/h 13.7 km/h 96% 0.0 mm
09:54 8.5 °C 9.0 °C 996.2 hPa SSW 9.3 km/h 13.7 km/h 96% 0.0 mm
09:59 8.5 °C 9.0 °C 996.2 hPa South 8.7 km/h 11.6 km/h 96% 0.0 mm
10:02 8.5 °C 9.0 °C 996.2 hPa SSW 7.9 km/h 13.0 km/h 96% 0.0 mm
10:07 8.6 °C 9.0 °C 996.2 hPa SSW 10.1 km/h 13.0 km/h 96% 0.0 mm
10:09 8.6 °C 9.0 °C 996.2 hPa SW 7.2 km/h 13.0 km/h 96% 0.0 mm
10:14 8.6 °C 9.0 °C 996.2 hPa South 5.8 km/h 13.7 km/h 96% 0.0 mm
10:15 8.6 °C 9.0 °C 996.2 hPa SSW 6.9 km/h 13.7 km/h 96% 0.0 mm
10:20 8.7 °C 9.0 °C 996.2 hPa SSW 6.4 km/h 11.9 km/h 96% 0.0 mm
10:25 8.7 °C 9.0 °C 996.2 hPa SSW 1.8 km/h 9.7 km/h 96% 0.0 mm
10:26 8.7 °C 9.0 °C 995.1 hPa SSW 6.1 km/h 9.7 km/h 96% 0.0 mm
10:33 8.8 °C 9.0 °C 995.1 hPa SW 5.5 km/h 13.7 km/h 95% 0.0 mm
10:38 8.8 °C 9.0 °C 995.1 hPa SSW 6.1 km/h 13.7 km/h 95% 0.0 mm
10:39 8.8 °C 9.0 °C 995.1 hPa SSW 7.9 km/h 13.7 km/h 95% 0.0 mm
10:44 8.8 °C 9.0 °C 996.2 hPa SW 4.7 km/h 11.9 km/h 95% 0.0 mm
10:46 8.9 °C 9.0 °C 996.2 hPa SSW 7.9 km/h 11.9 km/h 95% 0.0 mm
10:51 8.9 °C 9.0 °C 996.2 hPa SSW 7.6 km/h 11.1 km/h 95% 0.0 mm
10:56 8.9 °C 9.0 °C 995.1 hPa WSW 10.1 km/h 16.6 km/h 95% 0.0 mm
11:02 9.0 °C 8.0 °C 995.1 hPa SW 13.0 km/h 16.9 km/h 94% 0.0 mm
11:07 9.0 °C 8.0 °C 995.1 hPa SW 10.5 km/h 16.9 km/h 94% 0.0 mm
11:11 9.1 °C 8.0 °C 995.1 hPa SW 11.9 km/h 16.6 km/h 94% 0.0 mm
11:16 9.1 °C 8.0 °C 996.2 hPa SSW 17.2 km/h 17.2 km/h 94% 0.0 mm
11:20 9.2 °C 9.0 °C 996.2 hPa SW 11.6 km/h 17.2 km/h 93% 0.0 mm
11:29 9.3 °C 9.0 °C 996.2 hPa SSW 9.0 km/h 19.8 km/h 93% 0.0 mm
11:38 9.3 °C 8.0 °C 996.2 hPa SW 9.3 km/h 13.7 km/h 92% 0.0 mm
11:43 9.4 °C 8.0 °C 996.2 hPa SSW 13.7 km/h 15.8 km/h 92% 0.0 mm
11:45 9.4 °C 8.0 °C 996.2 hPa SSW 10.1 km/h 15.8 km/h 92% 0.0 mm
11:50 9.4 °C 8.0 °C 996.2 hPa SSW 16.6 km/h 17.7 km/h 91% 0.0 mm
11:55 9.5 °C 9.0 °C 996.2 hPa SSW 9.7 km/h 17.7 km/h 91% 0.0 mm
12:00 9.6 °C 9.0 °C 995.1 hPa SSW 12.6 km/h 17.2 km/h 91% 0.0 mm
12:04 9.6 °C 9.0 °C 995.1 hPa SW 13.7 km/h 17.2 km/h 91% 0.0 mm
12:09 9.6 °C 8.0 °C 995.1 hPa SW 11.9 km/h 20.9 km/h 90% 0.0 mm
12:11 9.6 °C 8.0 °C 995.1 hPa SW 13.7 km/h 20.9 km/h 90% 0.0 mm
12:16 9.7 °C 8.0 °C 995.1 hPa SW 14.0 km/h 20.9 km/h 90% 0.0 mm
12:17 9.7 °C 8.0 °C 995.1 hPa SW 9.7 km/h 20.9 km/h 90% 0.0 mm
12:22 9.8 °C 8.0 °C 995.1 hPa SSW 8.7 km/h 19.1 km/h 89% 0.0 mm
12:27 9.9 °C 9.0 °C 995.1 hPa SSW 10.5 km/h 19.1 km/h 89% 0.0 mm
12:28 9.9 °C 9.0 °C 995.1 hPa SSW 11.9 km/h 19.1 km/h 89% 0.0 mm
12:33 9.9 °C 9.0 °C 995.1 hPa SSW 13.7 km/h 18.3 km/h 89% 0.0 mm
12:38 9.9 °C 8.0 °C 995.1 hPa SSW 13.0 km/h 21.2 km/h 88% 0.0 mm
12:43 9.9 °C 8.0 °C 995.1 hPa SW 12.6 km/h 21.2 km/h 88% 0.0 mm
12:48 9.9 °C 8.0 °C 995.1 hPa SSW 16.9 km/h 19.8 km/h 88% 0.0 mm
12:53 9.9 °C 8.0 °C 995.1 hPa WSW 24.5 km/h 24.5 km/h 87% 0.0 mm
12:58 9.9 °C 8.0 °C 995.1 hPa SSW 9.3 km/h 24.5 km/h 87% 0.0 mm
13:01 9.9 °C 8.0 °C 995.1 hPa SW 19.5 km/h 24.5 km/h 87% 0.0 mm
13:07 9.9 °C 8.0 °C 995.1 hPa SW 17.7 km/h 21.6 km/h 87% 0.0 mm
13:12 10.0 °C 8.0 °C 994.1 hPa SSW 11.9 km/h 21.2 km/h 87% 0.0 mm
13:17 10.0 °C 8.0 °C 994.1 hPa SSW 17.2 km/h 20.6 km/h 86% 0.0 mm
13:22 10.0 °C 8.0 °C 994.1 hPa WSW 16.9 km/h 20.6 km/h 86% 0.0 mm
13:28 9.9 °C 8.0 °C 995.1 hPa WSW 12.2 km/h 21.2 km/h 86% 0.0 mm
13:33 9.9 °C 8.0 °C 995.1 hPa SW 19.8 km/h 19.8 km/h 87% 0.0 mm
13:38 9.9 °C 8.0 °C 995.1 hPa WSW 16.6 km/h 20.9 km/h 87% 0.0 mm
13:39 9.9 °C 8.0 °C 995.1 hPa SSW 11.6 km/h 20.9 km/h 86% 0.0 mm
13:44 10.0 °C 8.0 °C 995.1 hPa SW 12.6 km/h 23.8 km/h 86% 0.0 mm
13:49 10.0 °C 8.0 °C 995.1 hPa SW 19.8 km/h 23.8 km/h 85% 0.0 mm
13:54 10.0 °C 8.0 °C 995.1 hPa SW 16.3 km/h 20.6 km/h 85% 0.0 mm
13:59 10.0 °C 8.0 °C 995.1 hPa SW 14.0 km/h 20.6 km/h 85% 0.0 mm
14:04 10.0 °C 8.0 °C 995.1 hPa SW 13.7 km/h 25.6 km/h 84% 0.0 mm
14:09 10.0 °C 8.0 °C 995.1 hPa WSW 13.0 km/h 25.6 km/h 84% 0.0 mm
14:14 10.0 °C 8.0 °C 995.1 hPa WSW 13.7 km/h 21.2 km/h 84% 0.0 mm
14:19 9.9 °C 8.0 °C 995.1 hPa WSW 17.7 km/h 21.9 km/h 84% 0.0 mm
14:23 9.9 °C 8.0 °C 995.1 hPa SSW 19.8 km/h 23.3 km/h 85% 0.0 mm
14:28 9.8 °C 8.0 °C 995.1 hPa SW 20.9 km/h 24.5 km/h 85% 0.0 mm
14:33 9.6 °C 8.0 °C 995.1 hPa WSW 25.3 km/h 30.6 km/h 86% 0.0 mm
14:38 9.5 °C 8.0 °C 995.1 hPa WSW 20.9 km/h 38.1 km/h 86% 0.0 mm
14:42 9.4 °C 8.0 °C 995.1 hPa SW 21.2 km/h 38.1 km/h 87% 0.0 mm
14:47 9.3 °C 8.0 °C 995.1 hPa WSW 16.3 km/h 32.0 km/h 88% 0.0 mm
14:50 9.2 °C 8.0 °C 995.1 hPa WSW 15.8 km/h 28.0 km/h 88% 0.0 mm
14:55 9.2 °C 8.0 °C 995.1 hPa WSW 17.2 km/h 22.7 km/h 89% 0.0 mm
14:57 9.2 °C 8.0 °C 995.1 hPa SW 14.0 km/h 22.7 km/h 89% 0.0 mm
15:02 9.2 °C 8.0 °C 995.1 hPa SW 15.8 km/h 21.2 km/h 90% 0.0 mm
15:07 9.1 °C 8.0 °C 995.1 hPa WSW 15.4 km/h 21.2 km/h 90% 0.0 mm
15:12 9.1 °C 8.0 °C 995.1 hPa SSW 12.2 km/h 24.5 km/h 90% 0.0 mm
15:21 9.0 °C 8.0 °C 995.1 hPa SW 12.2 km/h 23.8 km/h 91% 0.0 mm
15:24 9.0 °C 8.0 °C 995.1 hPa SW 15.4 km/h 17.7 km/h 91% 0.0 mm
15:29 9.0 °C 8.0 °C 995.1 hPa WSW 13.7 km/h 24.5 km/h 91% 0.0 mm
15:32 9.0 °C 8.0 °C 995.1 hPa WSW 15.4 km/h 24.5 km/h 91% 0.0 mm
15:34 9.0 °C 8.0 °C 995.1 hPa WSW 17.2 km/h 24.5 km/h 91% 0.0 mm
15:39 9.0 °C 8.0 °C 995.1 hPa SW 13.0 km/h 26.7 km/h 91% 0.0 mm
15:44 8.9 °C 8.0 °C 995.1 hPa WSW 12.2 km/h 26.7 km/h 91% 0.0 mm
15:50 8.9 °C 8.0 °C 995.1 hPa WSW 11.6 km/h 23.8 km/h 91% 0.0 mm
15:54 8.9 °C 8.0 °C 995.1 hPa SW 12.2 km/h 23.8 km/h 90% 0.0 mm
15:59 8.9 °C 8.0 °C 995.1 hPa WSW 13.0 km/h 21.2 km/h 90% 0.0 mm
16:05 8.9 °C 8.0 °C 995.1 hPa SSW 16.9 km/h 16.9 km/h 90% 0.0 mm
16:10 8.9 °C 8.0 °C 995.1 hPa WSW 12.6 km/h 20.1 km/h 90% 0.0 mm
16:15 8.7 °C 7.0 °C 995.1 hPa SW 13.0 km/h 20.1 km/h 89% 0.0 mm
16:20 8.5 °C 7.0 °C 995.1 hPa WSW 12.2 km/h 16.9 km/h 89% 0.0 mm
16:25 8.4 °C 7.0 °C 995.1 hPa WSW 12.6 km/h 17.2 km/h 89% 0.0 mm
16:30 8.3 °C 7.0 °C 996.2 hPa SW 12.2 km/h 17.2 km/h 89% 0.0 mm
16:32 8.2 °C 7.0 °C 996.2 hPa SW 14.0 km/h 17.2 km/h 89% 0.0 mm
16:38 8.1 °C 7.0 °C 996.2 hPa SW 10.5 km/h 16.3 km/h 90% 0.0 mm
16:43 8.0 °C 7.0 °C 996.2 hPa SW 8.7 km/h 20.6 km/h 90% 0.0 mm
16:48 7.9 °C 7.0 °C 996.2 hPa WSW 9.3 km/h 20.6 km/h 91% 0.0 mm
16:51 7.9 °C 7.0 °C 996.2 hPa WSW 13.7 km/h 14.8 km/h 91% 0.0 mm
16:53 7.8 °C 6.0 °C 996.2 hPa WSW 12.2 km/h 14.8 km/h 91% 0.0 mm
16:58 7.8 °C 6.0 °C 996.8 hPa WSW 12.2 km/h 15.4 km/h 92% 0.0 mm
17:03 7.9 °C 7.0 °C 996.8 hPa WSW 13.0 km/h 16.9 km/h 93% 0.0 mm
17:08 7.8 °C 7.0 °C 996.8 hPa WSW 11.6 km/h 16.9 km/h 93% 0.0 mm
17:10 7.8 °C 7.0 °C 996.8 hPa WSW 11.9 km/h 16.3 km/h 93% 0.0 mm
17:14 7.8 °C 7.0 °C 996.8 hPa SW 10.1 km/h 16.3 km/h 93% 0.0 mm
17:19 7.8 °C 7.0 °C 996.8 hPa WSW 11.9 km/h 16.9 km/h 93% 0.0 mm
17:24 7.9 °C 7.0 °C 996.8 hPa WSW 12.6 km/h 16.9 km/h 93% 0.0 mm
17:29 7.9 °C 7.0 °C 996.8 hPa West 11.6 km/h 16.6 km/h 93% 0.3 mm
17:30 7.9 °C 7.0 °C 996.8 hPa West 10.5 km/h 14.8 km/h 93% 0.3 mm
17:35 7.6 °C 7.0 °C 996.8 hPa WSW 16.9 km/h 23.8 km/h 93% 0.5 mm
17:38 7.4 °C 6.0 °C 996.8 hPa WSW 16.6 km/h 23.8 km/h 92% 0.5 mm
17:43 7.2 °C 6.0 °C 996.8 hPa WSW 20.9 km/h 25.6 km/h 92% 0.8 mm
17:44 7.2 °C 6.0 °C 996.8 hPa WSW 17.7 km/h 25.6 km/h 92% 0.8 mm
17:49 7.0 °C 6.0 °C 996.8 hPa WSW 18.0 km/h 26.7 km/h 93% 0.8 mm
17:51 7.0 °C 6.0 °C 996.8 hPa West 19.8 km/h 26.7 km/h 93% 0.8 mm
17:56 6.8 °C 6.0 °C 996.8 hPa WSW 20.6 km/h 31.7 km/h 95% 0.8 mm
17:59 6.8 °C 6.0 °C 996.8 hPa WSW 16.3 km/h 31.7 km/h 95% 0.8 mm
18:04 6.6 °C 6.0 °C 996.8 hPa WSW 11.9 km/h 27.4 km/h 95% 0.8 mm
18:06 6.6 °C 6.0 °C 996.8 hPa WSW 11.9 km/h 23.3 km/h 95% 0.8 mm
18:11 6.4 °C 6.0 °C 996.8 hPa WSW 16.3 km/h 20.1 km/h 95% 0.8 mm
18:14 6.4 °C 6.0 °C 996.8 hPa WSW 12.6 km/h 20.1 km/h 95% 0.8 mm
18:20 6.4 °C 6.0 °C 996.8 hPa WSW 12.2 km/h 18.0 km/h 95% 0.8 mm
18:30 6.2 °C 6.0 °C 996.8 hPa WSW 9.0 km/h 19.5 km/h 95% 0.5 mm
18:35 6.2 °C 6.0 °C 996.8 hPa WSW 17.7 km/h 17.7 km/h 95% 0.3 mm
18:40 6.3 °C 6.0 °C 996.8 hPa WSW 17.2 km/h 21.9 km/h 96% 0.0 mm
18:44 6.3 °C 6.0 °C 996.8 hPa WSW 17.2 km/h 21.9 km/h 96% 0.0 mm
18:49 6.4 °C 6.0 °C 996.8 hPa WSW 15.8 km/h 21.9 km/h 96% 0.0 mm
18:50 6.4 °C 6.0 °C 996.8 hPa SSW 12.6 km/h 20.9 km/h 96% 0.0 mm
18:55 6.4 °C 6.0 °C 996.8 hPa WSW 20.9 km/h 20.9 km/h 96% 0.0 mm
18:57 6.4 °C 6.0 °C 997.9 hPa WSW 16.3 km/h 20.9 km/h 96% 0.0 mm
19:02 6.4 °C 6.0 °C 997.9 hPa WSW 16.6 km/h 20.9 km/h 96% 0.0 mm
19:07 6.4 °C 6.0 °C 997.9 hPa SW 10.5 km/h 19.5 km/h 95% 0.0 mm
19:12 6.4 °C 6.0 °C 997.9 hPa SW 12.6 km/h 17.2 km/h 95% 0.0 mm
19:17 6.3 °C 6.0 °C 997.9 hPa SSW 12.2 km/h 17.2 km/h 95% 0.0 mm
19:22 6.3 °C 6.0 °C 997.9 hPa SW 12.2 km/h 15.1 km/h 95% 0.0 mm
19:27 6.3 °C 6.0 °C 997.9 hPa SW 12.6 km/h 18.3 km/h 95% 0.0 mm
19:32 6.3 °C 6.0 °C 997.9 hPa WSW 13.7 km/h 19.8 km/h 94% 0.0 mm
19:37 6.3 °C 6.0 °C 997.9 hPa SW 13.0 km/h 19.8 km/h 94% 0.0 mm
19:42 6.4 °C 6.0 °C 997.9 hPa WSW 16.3 km/h 21.2 km/h 94% 0.0 mm
19:43 6.4 °C 6.0 °C 997.9 hPa SW 16.3 km/h 21.2 km/h 94% 0.0 mm
19:48 6.4 °C 6.0 °C 997.9 hPa SW 20.1 km/h 21.2 km/h 94% 0.0 mm
19:58 6.4 °C 6.0 °C 997.9 hPa WSW 12.2 km/h 20.6 km/h 94% 0.0 mm
20:03 6.5 °C 6.0 °C 997.9 hPa SW 10.5 km/h 20.6 km/h 94% 0.3 mm
20:04 6.5 °C 6.0 °C 997.9 hPa SW 12.2 km/h 20.6 km/h 94% 0.3 mm
20:09 6.5 °C 6.0 °C 997.9 hPa SW 16.9 km/h 21.2 km/h 94% 0.3 mm
20:11 6.5 °C 6.0 °C 997.9 hPa SW 16.6 km/h 21.2 km/h 94% 0.3 mm
20:16 6.5 °C 6.0 °C 997.9 hPa SSW 12.6 km/h 21.2 km/h 94% 0.3 mm
20:20 6.5 °C 6.0 °C 997.9 hPa WSW 12.6 km/h 20.9 km/h 94% 0.3 mm
20:26 6.5 °C 6.0 °C 998.9 hPa SW 17.7 km/h 17.7 km/h 94% 0.3 mm
20:27 6.5 °C 6.0 °C 998.9 hPa SW 13.0 km/h 17.7 km/h 94% 0.3 mm
20:32 6.4 °C 6.0 °C 998.9 hPa SW 9.7 km/h 17.7 km/h 94% 0.3 mm
20:34 6.4 °C 6.0 °C 998.9 hPa SW 9.3 km/h 17.7 km/h 94% 0.3 mm
20:36 6.5 °C 6.0 °C 998.9 hPa SSW 11.6 km/h 16.6 km/h 95% 0.3 mm
20:41 6.5 °C 6.0 °C 998.9 hPa SSW 12.2 km/h 16.9 km/h 95% 0.3 mm
20:42 6.5 °C 6.0 °C 998.9 hPa SW 15.8 km/h 16.9 km/h 95% 0.3 mm
20:47 6.5 °C 6.0 °C 998.9 hPa SSW 12.6 km/h 16.9 km/h 95% 0.3 mm
20:52 6.5 °C 6.0 °C 998.9 hPa WSW 12.6 km/h 14.3 km/h 95% 0.3 mm
20:57 6.5 °C 6.0 °C 999.9 hPa SW 10.1 km/h 16.9 km/h 95% 0.3 mm
21:02 6.5 °C 6.0 °C 999.9 hPa SW 14.8 km/h 16.9 km/h 96% 0.0 mm
21:07 6.5 °C 6.0 °C 999.9 hPa SSW 12.6 km/h 19.5 km/h 96% 0.0 mm
21:11 6.5 °C 6.0 °C 999.9 hPa WSW 11.9 km/h 19.5 km/h 96% 0.0 mm
21:16 6.5 °C 6.0 °C 997.9 hPa SSW 10.5 km/h 19.5 km/h 96% 0.0 mm
21:21 6.5 °C 6.0 °C 997.9 hPa SW 9.7 km/h 16.9 km/h 96% 0.0 mm
21:25 6.4 °C 6.0 °C 997.9 hPa SW 9.7 km/h 16.6 km/h 96% 0.0 mm
21:30 6.4 °C 6.0 °C 998.9 hPa SSW 12.6 km/h 16.3 km/h 96% 0.0 mm
21:31 6.3 °C 6.0 °C 998.9 hPa SSW 7.9 km/h 15.4 km/h 96% 0.0 mm
21:35 6.3 °C 6.0 °C 998.9 hPa SSW 10.1 km/h 15.4 km/h 96% 0.0 mm
21:40 6.2 °C 6.0 °C 998.9 hPa SW 9.7 km/h 13.0 km/h 96% 0.0 mm
21:43 6.1 °C 6.0 °C 998.9 hPa Calm   13.0 km/h 96% 0.0 mm
21:48 6.1 °C 6.0 °C 998.9 hPa SW 7.9 km/h 13.0 km/h 96% 0.0 mm
21:51 6.1 °C 6.0 °C 998.9 hPa SSW 7.6 km/h 13.7 km/h 96% 0.0 mm
21:58 6.1 °C 6.0 °C 998.9 hPa SSW 8.7 km/h 14.0 km/h 97% 0.0 mm
22:03 6.1 °C 6.0 °C 998.9 hPa SW 10.1 km/h 14.0 km/h 97% 0.0 mm
22:08 6.3 °C 6.0 °C 998.9 hPa SW 11.9 km/h 16.9 km/h 97% 0.0 mm
22:13 6.3 °C 6.0 °C 999.9 hPa SW 9.3 km/h 16.9 km/h 97% 0.0 mm
22:18 6.3 °C 6.0 °C 999.9 hPa SW 9.3 km/h 13.7 km/h 97% 0.0 mm
22:21 6.4 °C 6.0 °C 999.9 hPa SW 12.2 km/h 13.7 km/h 97% 0.0 mm
22:26 6.4 °C 6.0 °C 999.9 hPa SSW 12.6 km/h 12.6 km/h 97% 0.0 mm
22:30 6.4 °C 6.0 °C 999.9 hPa WSW 9.0 km/h 18.0 km/h 97% 0.0 mm
22:35 6.4 °C 6.0 °C 999.9 hPa SSW 11.9 km/h 18.0 km/h 97% 0.0 mm
22:36 6.4 °C 6.0 °C 999.9 hPa SSW 9.7 km/h 18.0 km/h 97% 0.0 mm
22:41 6.4 °C 6.0 °C 1000.9 hPa SW 9.7 km/h 15.4 km/h 97% 0.0 mm
22:46 6.4 °C 6.0 °C 1000.9 hPa WSW 10.1 km/h 14.0 km/h 97% 0.0 mm
22:49 6.4 °C 6.0 °C 1000.9 hPa SW 6.4 km/h 14.0 km/h 97% 0.0 mm
22:54 6.4 °C 6.0 °C 1000.9 hPa SW 9.7 km/h 12.6 km/h 96% 0.0 mm
22:56 6.4 °C 6.0 °C 999.9 hPa SW 10.5 km/h 12.6 km/h 96% 0.0 mm
23:06 6.4 °C 6.0 °C 999.9 hPa SW 9.0 km/h 13.7 km/h 96% 0.0 mm
23:09 6.4 °C 6.0 °C 999.9 hPa WSW 8.7 km/h 13.7 km/h 96% 0.0 mm
23:14 6.4 °C 6.0 °C 1000.9 hPa SSW 12.6 km/h 14.0 km/h 96% 0.0 mm
23:17 6.4 °C 6.0 °C 1000.9 hPa SW 10.5 km/h 14.0 km/h 96% 0.0 mm
23:22 6.3 °C 6.0 °C 1000.9 hPa SSW 10.5 km/h 14.0 km/h 96% 0.0 mm
23:23 6.3 °C 6.0 °C 1000.9 hPa WSW 9.3 km/h 14.0 km/h 96% 0.0 mm
23:28 6.3 °C 6.0 °C 1000.9 hPa West 6.1 km/h 15.4 km/h 95% 0.0 mm
23:33 6.2 °C 6.0 °C 1000.9 hPa SSW 6.4 km/h 15.4 km/h 95% 0.0 mm
23:34 6.1 °C 6.0 °C 1000.9 hPa SSW 5.8 km/h 15.4 km/h 95% 0.0 mm
23:35 6.1 °C 6.0 °C 1000.9 hPa South 6.9 km/h 10.1 km/h 95% 0.0 mm
23:40 6.0 °C 6.0 °C 1000.9 hPa WSW 9.3 km/h 13.7 km/h 95% 0.0 mm
23:46 5.9 °C 6.0 °C 1000.9 hPa Calm   13.7 km/h 95% 0.0 mm
23:48 5.9 °C 6.0 °C 1000.9 hPa SSW 9.7 km/h 13.7 km/h 95% 0.0 mm
23:53 5.8 °C 6.0 °C 1000.9 hPa South 7.9 km/h 10.1 km/h 95% 0.0 mm
23:58 5.8 °C 6.0 °C 1000.9 hPa SSW 9.0 km/h 10.1 km/h 95% 0.0 mm
Données Historique de Météo Turbie

Mise a jour : 21/05/2018 16:54:12
Généré par Cumulus 1.9.4 (1099)